User: anonymous   Login
Location: Caltech
(34.1382°N, 118.1253°W)
Time: 08:36:51
(UTC-07:00)
Language:

ITAMSAT 1 - Orbit

View from above orbital plane
View from above orbital plane
View from above satellite
View from above satellite

Ground track
Ground track

The orbit data is extracted from the following two-line orbital elements,

1 22826U 93061D   17229.36320592 -.00000001  00000-0  17355-4 0  9997
2 22826  98.8121 195.7904 0009609 137.6707 222.5218 14.30332136246326
Epoch (UTC): 17 August 2017 08:43:00
Eccentricity: 0.0009609
inclination: 98.8121°
perigee height: 784 km
apogee height: 797 km
right ascension of ascending node: 195.7904°
argument of perigee: 137.6707°
revolutions per day: 14.30332136
mean anomaly at epoch: 222.5218°
orbit number at epoch: 24632

The dashed part of the orbit path shows where the satellite is in the earth's shadow,  

DLR